QPF
0.00 0.00 0.00 0.00 0.00 0.01 0.01 0.01 0.02 0.02 0.03 0.03 0.04 0.03 0.02 0.01 0.01 0.01 0.00 0.01 0.02 0.04 0.05 0.04 0.02 0.02 0.03 0.04 0.04 0.03 0.02 0.01 0.01 0.01 0.01 0.01 0.01 0.01 0.01 0.02 0.02 0.02 0.02
0.00 0.00 0.00 0.00 0.00 0.01 0.01 0.01 0.01 0.02 0.02 0.02 0.03 0.03 0.02 0.02 0.03 0.03 0.01 0.01 0.01 0.03 0.06 0.06 0.04 0.02 0.02 0.03 0.03 0.04 0.03 0.03 0.02 0.01 0.01 0.01 0.02 0.02 0.01 0.01 0.01 0.02 0.02
0.00 0.00 0.00 0.00 0.00 0.00 0.00 0.00 0.01 0.01 0.01 0.02 0.03 0.03 0.03 0.03 0.03 0.03 0.03 0.02 0.01 0.02 0.04 0.06 0.06 0.05 0.03 0.03 0.03 0.03 0.03 0.02 0.02 0.02 0.01 0.01 0.01 0.01 0.01 0.01 0.01 0.01 0.01
0.00 0.00 0.00 0.00 0.00 0.00 0.00 0.00 0.00 0.00 0.01 0.01 0.01 0.02 0.02 0.01 0.02 0.02 0.03 0.03 0.03 0.03 0.03 0.04 0.06 0.06 0.06 0.04 0.03 0.03 0.04 0.03 0.02 0.02 0.02 0.02 0.01 0.00 0.01 0.01 0.01 0.02 0.01
0.01 0.01 0.01 0.00 0.00 0.00 0.00 0.00 0.00 0.00 0.00 0.01 0.01 0.01 0.01 0.01 0.02 0.02 0.03 0.03 0.04 0.04 0.04 0.04 0.04 0.05 0.05 0.05 0.04 0.03 0.03 0.04 0.03 0.02 0.01 0.02 0.02 0.01 0.00 0.01 0.01 0.02 0.02
0.01 0.01 0.01 0.00 0.00 0.00 0.00 0.00 0.00 0.00 0.00 0.00 0.00 0.01 0.01 0.01 0.01 0.01 0.01 0.02 0.03 0.04 0.04 0.04 0.04 0.04 0.04 0.04 0.05 0.04 0.04 0.03 0.04 0.03 0.02 0.01 0.01 0.02 0.01 0.01 0.01 0.01 0.02
0.01 0.01 0.01 0.01 0.01 0.00 0.00 0.00 0.00 0.00 0.00 0.00 0.00 0.01 0.01 0.01 0.01 0.01 0.01 0.01 0.02 0.02 0.03 0.04 0.05 0.04 0.04 0.04 0.04 0.04 0.04 0.04 0.03 0.03 0.03 0.02 0.01 0.01 0.01 0.01 0.01 0.01 0.02
0.01 0.01 0.01 0.01 0.01 0.01 0.00 0.00 0.00 0.00 0.00 0.00 0.00 0.01 0.01 0.01 0.01 0.01 0.01 0.01 0.01 0.01 0.02 0.03 0.04 0.04 0.04 0.04 0.04 0.04 0.03 0.03 0.03 0.03 0.03 0.03 0.02 0.01 0.01 0.01 0.02 0.02 0.03
0.00 0.00 0.00 0.01 0.01 0.01 0.01 0.00 0.00 0.00 0.00 0.00 0.00 0.00 0.01 0.01 0.01 0.01 0.01 0.01 0.01 0.01 0.01 0.02 0.03 0.03 0.03 0.04 0.04 0.04 0.03 0.03 0.03 0.03 0.03 0.03 0.03 0.01 0.01 0.01 0.01 0.02 0.03
0.00 0.00 0.00 0.00 0.01 0.01 0.01 0.01 0.01 0.00 0.00 0.00 0.00 0.00 0.01 0.01 0.01 0.02 0.01 0.01 0.01 0.01 0.01 0.01 0.02 0.03 0.03 0.03 0.03 0.04 0.03 0.03 0.02 0.03 0.03 0.03 0.03 0.02 0.01 0.01 0.01 0.01 0.01
0.00 0.00 0.00 0.00 0.00 0.00 0.01 0.01 0.01 0.01 0.01 0.00 0.00 0.00 0.01 0.01 0.01 0.02 0.02 0.02 0.02 0.01 0.01 0.01 0.01 0.02 0.03 0.03 0.03 0.03 0.03 0.03 0.02 0.02 0.03 0.03 0.03 0.03 0.02 0.01 0.01 0.01 0.01
0.00 0.00 0.00 0.00 0.00 0.00 0.00 0.00 0.00 0.00 0.01 0.01 0.01 0.01 0.01 0.01 0.01 0.02 0.02 0.02 0.02 0.02 0.02 0.02 0.02 0.02 0.02 0.03 0.03 0.03 0.02 0.02 0.02 0.02 0.03 0.03 0.03 0.04 0.03 0.02 0.02 0.01 0.01
0.00 0.00 0.00 0.00 0.00 0.00 0.00 0.00 0.00 0.00 0.00 0.01 0.01 0.01 0.01 0.01 0.01 0.01 0.02 0.02 0.02 0.02 0.02 0.03 0.03 0.03 0.03 0.03 0.03 0.04 0.03 0.02 0.02 0.02 0.02 0.03 0.03 0.04 0.04 0.03 0.02 0.02 0.02
0.00 0.00 0.00 0.00 0.00 0.00 0.00 0.00 0.00 0.00 0.00 0.00 0.00 0.00 0.01 0.01 0.01 0.01 0.01 0.01 0.01 0.02 0.02 0.02 0.03 0.03 0.03 0.03 0.03 0.03 0.04 0.03 0.02 0.02 0.02 0.02 0.03 0.03 0.03 0.03 0.03 0.02 0.02
0.00 0.00 0.00 0.00 0.00 0.00 0.00 0.00 0.00 0.00 0.00 0.00 0.00 0.00 0.00 0.00 0.01 0.01 0.01 0.01 0.01 0.01 0.01 0.02 0.02 0.02 0.03 0.04 0.03 0.03 0.03 0.03 0.03 0.02 0.02 0.02 0.02 0.03 0.03 0.03 0.02 0.02 0.02
0.00 0.00 0.00 0.00 0.00 0.00 0.00 0.00 0.00 0.00 0.00 0.00 0.00 0.00 0.00 0.01 0.01 0.01 0.01 0.01 0.01 0.01 0.01 0.02 0.02 0.02 0.03 0.04 0.04 0.03 0.03 0.03 0.03 0.02 0.03 0.03 0.03 0.03 0.03 0.03 0.02 0.03 0.03
0.00 0.00 0.00 0.00 0.00 0.00 0.00 0.00 0.00 0.00 0.00 0.00 0.00 0.00 0.00 0.00 0.01 0.01 0.01 0.01 0.02 0.02 0.02 0.02 0.02 0.03 0.03 0.03 0.03 0.03 0.03 0.03 0.03 0.03 0.02 0.02 0.03 0.03 0.03 0.03 0.03 0.03 0.03
0.00 0.00 0.00 0.00 0.00 0.00 0.00 0.00 0.00 0.00 0.00 0.00 0.00 0.00 0.01 0.01 0.01 0.01 0.01 0.01 0.01 0.02 0.02 0.02 0.02 0.03 0.03 0.03 0.03 0.03 0.03 0.03 0.03 0.03 0.02 0.02 0.02 0.03 0.03 0.03 0.03 0.02 0.02
0.01 0.00 0.00 0.00 0.00 0.00 0.00 0.00 0.00 0.00 0.00 0.00 0.00 0.00 0.01 0.01 0.01 0.01 0.01 0.01 0.01 0.02 0.02 0.02 0.02 0.02 0.03 0.03 0.03 0.03 0.03 0.03 0.03 0.02 0.02 0.02 0.02 0.02 0.02 0.03 0.03 0.03 0.02
0.01 0.00 0.00 0.00 0.00 0.00 0.00 0.00 0.00 0.00 0.00 0.00 0.00 0.01 0.01 0.01 0.01 0.01 0.01 0.01 0.01 0.01 0.02 0.02 0.02 0.02 0.03 0.03 0.03 0.03 0.03 0.03 0.02 0.02 0.02 0.02 0.02 0.02 0.03 0.03 0.03 0.03 0.03
0.00 0.00 0.00 0.00 0.00 0.00 0.00 0.00 0.00 0.00 0.01 0.01 0.01 0.01 0.01 0.01 0.01 0.01 0.01 0.01 0.01 0.01 0.01 0.02 0.02 0.02 0.03 0.03 0.03 0.04 0.03 0.03 0.03 0.03 0.03 0.02 0.02 0.02 0.03 0.03 0.03 0.03 0.03
0.00 0.00 0.00 0.00 0.00 0.00 0.00 0.00 0.00 0.01 0.01 0.01 0.01 0.01 0.01 0.01 0.01 0.01 0.01 0.01 0.01 0.01 0.01 0.01 0.02 0.02 0.02 0.03 0.03 0.04 0.04 0.04 0.04 0.03 0.02 0.02 0.02 0.02 0.03 0.03 0.03 0.04 0.04
0.00 0.00 0.00 0.00 0.00 0.00 0.00 0.01 0.01 0.01 0.01 0.02 0.01 0.01 0.01 0.02 0.02 0.02 0.02 0.01 0.01 0.01 0.01 0.01 0.01 0.02 0.02 0.02 0.03 0.03 0.03 0.02 0.03 0.02 0.02 0.02 0.03 0.03 0.03 0.03 0.03 0.04 0.04
0.00 0.00 0.00 0.01 0.01 0.00 0.00 0.01 0.01 0.01 0.01 0.02 0.02 0.02 0.01 0.02 0.03 0.03 0.02 0.02 0.02 0.02 0.02 0.01 0.01 0.02 0.02 0.02 0.03 0.03 0.03 0.02 0.02 0.02 0.02 0.02 0.03 0.03 0.03 0.03 0.02 0.02 0.02
0.00 0.00 0.00 0.01 0.01 0.01 0.01 0.01 0.01 0.01 0.01 0.01 0.02 0.02 0.02 0.02 0.03 0.03 0.03 0.03 0.03 0.02 0.02 0.02 0.02 0.02 0.02 0.03 0.04 0.05 0.05 0.04 0.03 0.03 0.03 0.03 0.03 0.03 0.03 0.02 0.02 0.02 0.02
0.00 0.00 0.00 0.01 0.01 0.01 0.01 0.01 0.01 0.02 0.02 0.02 0.02 0.03 0.03 0.02 0.02 0.02 0.03 0.04 0.04 0.04 0.02 0.02 0.02 0.02 0.02 0.03 0.03 0.04 0.05 0.05 0.05 0.05 0.04 0.03 0.03 0.03 0.02 0.02 0.02 0.01 0.02
MSLP
1015.86 1016.47 1016.77 1016.77 1016.50 1016.04 1015.47 1014.89 1014.41 1014.09 1013.98 1014.09 1014.40 1014.88 1015.46 1016.09 1016.71 1017.30 1017.83 1018.32 1018.77 1019.23 1019.72 1020.26 1020.87 1021.54 1022.25 1022.99 1023.71 1024.38 1024.99 1025.51 1025.96 1026.32 1026.62 1026.87 1027.07 1027.24 1027.37 1027.46 1027.51 1027.51 1027.48
1017.39 1018.02 1018.31 1018.27 1017.95 1017.39 1016.71 1016.00 1015.35 1014.84 1014.52 1014.41 1014.50 1014.77 1015.17 1015.66 1016.20 1016.74 1017.27 1017.79 1018.30 1018.82 1019.36 1019.95 1020.58 1021.25 1021.95 1022.66 1023.35 1024.00 1024.59 1025.12 1025.58 1025.98 1026.34 1026.66 1026.94 1027.20 1027.41 1027.59 1027.71 1027.78 1027.79
1018.99 1019.54 1019.76 1019.66 1019.27 1018.67 1017.93 1017.15 1016.40 1015.76 1015.26 1014.93 1014.79 1014.81 1014.99 1015.28 1015.67 1016.12 1016.62 1017.14 1017.70 1018.28 1018.88 1019.51 1020.17 1020.84 1021.51 1022.17 1022.81 1023.41 1023.97 1024.49 1024.96 1025.40 1025.81 1026.20 1026.57 1026.91 1027.22 1027.48 1027.68 1027.82 1027.90
1020.53 1020.93 1021.02 1020.81 1020.37 1019.75 1019.02 1018.23 1017.46 1016.74 1016.12 1015.61 1015.23 1014.99 1014.90 1014.95 1015.14 1015.45 1015.86 1016.37 1016.95 1017.57 1018.23 1018.91 1019.58 1020.25 1020.89 1021.51 1022.10 1022.66 1023.18 1023.68 1024.16 1024.63 1025.09 1025.54 1025.97 1026.39 1026.77 1027.11 1027.39 1027.60 1027.74
1021.93 1022.12 1022.03 1021.70 1021.21 1020.59 1019.91 1019.18 1018.45 1017.73 1017.03 1016.37 1015.78 1015.29 1014.91 1014.69 1014.64 1014.76 1015.05 1015.49 1016.06 1016.71 1017.41 1018.12 1018.83 1019.50 1020.13 1020.72 1021.27 1021.79 1022.29 1022.78 1023.27 1023.76 1024.25 1024.74 1025.22 1025.68 1026.11 1026.50 1026.83 1027.10 1027.30
1023.16 1023.11 1022.81 1022.36 1021.81 1021.22 1020.61 1019.99 1019.35 1018.67 1017.95 1017.19 1016.42 1015.68 1015.03 1014.52 1014.20 1014.10 1014.23 1014.57 1015.09 1015.73 1016.45 1017.19 1017.92 1018.61 1019.24 1019.82 1020.37 1020.88 1021.38 1021.87 1022.37 1022.88 1023.38 1023.89 1024.38 1024.85 1025.29 1025.70 1026.05 1026.36 1026.60
1024.22 1023.93 1023.44 1022.85 1022.26 1021.70 1021.18 1020.68 1020.16 1019.56 1018.86 1018.03 1017.12 1016.17 1015.26 1014.48 1013.89 1013.56 1013.50 1013.70 1014.13 1014.73 1015.44 1016.19 1016.94 1017.64 1018.29 1018.89 1019.45 1019.97 1020.49 1021.01 1021.53 1022.05 1022.56 1023.06 1023.53 1023.98 1024.40 1024.79 1025.14 1025.46 1025.73
1025.16 1024.66 1024.00 1023.30 1022.66 1022.14 1021.71 1021.34 1020.94 1020.43 1019.76 1018.91 1017.89 1016.77 1015.65 1014.61 1013.78 1013.21 1012.95 1012.99 1013.30 1013.82 1014.48 1015.21 1015.96 1016.67 1017.34 1017.96 1018.54 1019.11 1019.66 1020.21 1020.76 1021.29 1021.81 1022.29 1022.74 1023.15 1023.52 1023.87 1024.19 1024.49 1024.77
1026.05 1025.39 1024.59 1023.81 1023.14 1022.65 1022.30 1022.02 1021.73 1021.30 1020.68 1019.82 1018.73 1017.49 1016.20 1014.97 1013.92 1013.14 1012.68 1012.55 1012.71 1013.12 1013.69 1014.36 1015.06 1015.76 1016.43 1017.07 1017.69 1018.29 1018.89 1019.48 1020.07 1020.62 1021.14 1021.60 1022.02 1022.38 1022.71 1023.00 1023.29 1023.57 1023.85
1026.95 1026.17 1025.29 1024.45 1023.78 1023.30 1023.00 1022.80 1022.57 1022.21 1021.62 1020.77 1019.65 1018.33 1016.93 1015.56 1014.35 1013.40 1012.76 1012.46 1012.46 1012.72 1013.16 1013.73 1014.35 1014.99 1015.63 1016.26 1016.89 1017.53 1018.16 1018.79 1019.41 1019.99 1020.52 1020.98 1021.37 1021.70 1021.98 1022.24 1022.50 1022.76 1023.03
1027.86 1027.04 1026.12 1025.27 1024.60 1024.14 1023.87 1023.69 1023.50 1023.17 1022.60 1021.76 1020.63 1019.29 1017.84 1016.40 1015.09 1014.01 1013.23 1012.77 1012.61 1012.70 1012.98 1013.40 1013.89 1014.43 1014.99 1015.57 1016.18 1016.81 1017.46 1018.12 1018.77 1019.37 1019.91 1020.38 1020.77 1021.09 1021.36 1021.60 1021.84 1022.09 1022.37
1028.80 1027.98 1027.08 1026.26 1025.60 1025.15 1024.88 1024.70 1024.50 1024.17 1023.61 1022.77 1021.67 1020.34 1018.90 1017.45 1016.10 1014.96 1014.08 1013.48 1013.16 1013.07 1013.17 1013.40 1013.72 1014.11 1014.55 1015.03 1015.58 1016.17 1016.80 1017.46 1018.12 1018.74 1019.30 1019.79 1020.19 1020.53 1020.80 1021.06 1021.30 1021.57 1021.86
1029.72 1028.95 1028.11 1027.35 1026.73 1026.28 1025.99 1025.78 1025.54 1025.18 1024.61 1023.79 1022.72 1021.45 1020.06 1018.66 1017.33 1016.18 1015.24 1014.55 1014.08 1013.82 1013.72 1013.75 1013.87 1014.07 1014.34 1014.70 1015.13 1015.64 1016.22 1016.85 1017.49 1018.11 1018.68 1019.19 1019.62 1019.98 1020.29 1020.57 1020.85 1021.14 1021.45
1030.58 1029.90 1029.16 1028.48 1027.91 1027.47 1027.16 1026.89 1026.59 1026.18 1025.59 1024.78 1023.76 1022.57 1021.28 1019.96 1018.72 1017.60 1016.65 1015.89 1015.31 1014.89 1014.61 1014.43 1014.34 1014.34 1014.42 1014.61 1014.90 1015.29 1015.78 1016.34 1016.93 1017.53 1018.09 1018.61 1019.06 1019.45 1019.80 1020.12 1020.44 1020.76 1021.10
1031.36 1030.79 1030.18 1029.60 1029.08 1028.66 1028.31 1027.98 1027.61 1027.14 1026.52 1025.73 1024.76 1023.67 1022.50 1021.31 1020.16 1019.12 1018.20 1017.41 1016.75 1016.21 1015.76 1015.39 1015.11 1014.90 1014.80 1014.81 1014.94 1015.19 1015.56 1016.02 1016.53 1017.07 1017.59 1018.09 1018.54 1018.95 1019.33 1019.69 1020.04 1020.39 1020.75
1032.05 1031.61 1031.13 1030.65 1030.19 1029.78 1029.39 1029.00 1028.56 1028.03 1027.38 1026.60 1025.70 1024.71 1023.66 1022.61 1021.60 1020.65 1019.78 1019.00 1018.30 1017.66 1017.09 1016.57 1016.12 1015.74 1015.47 1015.31 1015.28 1015.39 1015.62 1015.95 1016.36 1016.80 1017.25 1017.70 1018.12 1018.52 1018.89 1019.26 1019.63 1020.00 1020.38
1032.69 1032.37 1032.00 1031.61 1031.21 1030.80 1030.38 1029.93 1029.42 1028.84 1028.17 1027.41 1026.57 1025.67 1024.75 1023.83 1022.95 1022.10 1021.30 1020.55 1019.84 1019.15 1018.49 1017.87 1017.30 1016.79 1016.39 1016.09 1015.93 1015.89 1015.99 1016.18 1016.45 1016.78 1017.12 1017.48 1017.83 1018.17 1018.52 1018.87 1019.22 1019.59 1019.97
1033.29 1033.07 1032.79 1032.46 1032.10 1031.69 1031.24 1030.74 1030.18 1029.56 1028.87 1028.13 1027.34 1026.54 1025.73 1024.93 1024.16 1023.41 1022.68 1021.97 1021.27 1020.56 1019.87 1019.19 1018.55 1017.97 1017.48 1017.09 1016.82 1016.67 1016.63 1016.69 1016.83 1017.01 1017.22 1017.46 1017.70 1017.96 1018.23 1018.53 1018.85 1019.18 1019.53
1033.90 1033.72 1033.49 1033.20 1032.86 1032.45 1031.97 1031.44 1030.84 1030.19 1029.50 1028.78 1028.05 1027.32 1026.60 1025.90 1025.21 1024.54 1023.87 1023.20 1022.52 1021.82 1021.12 1020.42 1019.76 1019.16 1018.63 1018.19 1017.85 1017.62 1017.48 1017.41 1017.41 1017.45 1017.52 1017.62 1017.74 1017.89 1018.07 1018.28 1018.53 1018.81 1019.12
1034.50 1034.32 1034.10 1033.82 1033.48 1033.06 1032.57 1032.01 1031.39 1030.74 1030.06 1029.37 1028.68 1028.01 1027.36 1026.73 1026.11 1025.49 1024.86 1024.21 1023.55 1022.87 1022.18 1021.50 1020.85 1020.25 1019.72 1019.27 1018.90 1018.62 1018.40 1018.24 1018.12 1018.03 1017.97 1017.93 1017.92 1017.95 1018.02 1018.14 1018.31 1018.52 1018.76
1035.05 1034.84 1034.60 1034.30 1033.94 1033.51 1033.02 1032.46 1031.86 1031.22 1030.56 1029.91 1029.26 1028.64 1028.03 1027.44 1026.85 1026.26 1025.64 1025.01 1024.36 1023.69 1023.02 1022.37 1021.75 1021.18 1020.67 1020.23 1019.86 1019.55 1019.28 1019.06 1018.85 1018.66 1018.48 1018.33 1018.21 1018.12 1018.10 1018.12 1018.21 1018.34 1018.51
1035.51 1035.24 1034.95 1034.62 1034.25 1033.82 1033.34 1032.80 1032.23 1031.63 1031.02 1030.40 1029.80 1029.21 1028.63 1028.06 1027.48 1026.88 1026.27 1025.63 1024.98 1024.31 1023.65 1023.02 1022.43 1021.90 1021.42 1021.01 1020.65 1020.33 1020.04 1019.77 1019.51 1019.25 1018.99 1018.76 1018.55 1018.39 1018.28 1018.23 1018.24 1018.30 1018.40
1035.82 1035.48 1035.13 1034.78 1034.40 1033.99 1033.54 1033.04 1032.52 1031.97 1031.42 1030.85 1030.29 1029.73 1029.17 1028.60 1028.02 1027.41 1026.77 1026.12 1025.44 1024.77 1024.12 1023.50 1022.93 1022.41 1021.96 1021.57 1021.22 1020.91 1020.62 1020.33 1020.04 1019.75 1019.46 1019.18 1018.93 1018.71 1018.56 1018.46 1018.41 1018.42 1018.45
1035.96 1035.55 1035.16 1034.79 1034.42 1034.03 1033.63 1033.19 1032.73 1032.25 1031.75 1031.24 1030.72 1030.19 1029.64 1029.07 1028.48 1027.85 1027.19 1026.51 1025.82 1025.13 1024.46 1023.84 1023.27 1022.77 1022.33 1021.95 1021.61 1021.30 1021.02 1020.73 1020.44 1020.14 1019.85 1019.56 1019.30 1019.08 1018.91 1018.78 1018.70 1018.66 1018.65
1035.93 1035.47 1035.07 1034.69 1034.34 1033.99 1033.63 1033.25 1032.85 1032.43 1031.99 1031.53 1031.05 1030.55 1030.02 1029.46 1028.85 1028.21 1027.54 1026.84 1026.13 1025.42 1024.74 1024.10 1023.52 1023.01 1022.57 1022.18 1021.84 1021.54 1021.26 1020.98 1020.71 1020.43 1020.16 1019.90 1019.66 1019.46 1019.29 1019.17 1019.08 1019.01 1018.95
1035.79 1035.31 1034.89 1034.53 1034.19 1033.88 1033.56 1033.23 1032.88 1032.51 1032.11 1031.69 1031.24 1030.76 1030.25 1029.70 1029.11 1028.47 1027.80 1027.10 1026.38 1025.66 1024.97 1024.31 1023.72 1023.19 1022.72 1022.32 1021.97 1021.67 1021.40 1021.14 1020.89 1020.65 1020.41 1020.19 1019.99 1019.82 1019.68 1019.57 1019.47 1019.39 1019.30
Thickness
5513 5513 5513 5513 5513 5514 5515 5517 5518 5519 5521 5522 5523 5524 5525 5528 5530 5534 5537 5540 5542 5544 5546 5548 5550 5552 5554 5555 5556 5556 5557 5557 5558 5558 5558 5559 5561 5562 5563 5564 5565 5566 5567
5500 5500 5499 5499 5499 5501 5502 5503 5505 5506 5507 5509 5511 5512 5514 5516 5519 5522 5524 5527 5530 5533 5535 5537 5539 5540 5541 5544 5545 5546 5545 5546 5547 5547 5546 5546 5548 5550 5552 5554 5555 5556 5557
5487 5486 5486 5485 5485 5486 5488 5491 5491 5493 5494 5496 5498 5500 5501 5503 5505 5508 5511 5514 5517 5520 5523 5525 5527 5528 5529 5531 5533 5535 5536 5535 5535 5537 5538 5537 5537 5535 5539 5542 5544 5545 5546
5475 5474 5474 5473 5473 5474 5475 5477 5478 5480 5482 5483 5485 5487 5489 5490 5493 5495 5498 5501 5504 5508 5510 5512 5514 5516 5517 5519 5521 5523 5524 5525 5524 5525 5526 5528 5528 5526 5527 5529 5532 5534 5535
5464 5463 5463 5462 5462 5462 5463 5464 5465 5467 5468 5470 5472 5473 5476 5478 5480 5483 5485 5488 5491 5494 5497 5499 5501 5503 5505 5507 5509 5510 5512 5513 5514 5514 5514 5515 5515 5516 5517 5518 5519 5520 5523
5451 5450 5450 5449 5449 5449 5449 5450 5452 5453 5455 5457 5458 5460 5462 5464 5466 5469 5472 5475 5478 5481 5484 5486 5488 5491 5493 5494 5497 5498 5499 5501 5502 5503 5503 5504 5504 5505 5505 5505 5505 5507 5510
5436 5436 5435 5435 5435 5435 5435 5436 5438 5439 5441 5443 5445 5447 5449 5451 5454 5457 5459 5462 5465 5468 5471 5473 5476 5478 5480 5482 5484 5485 5487 5488 5489 5491 5492 5493 5495 5495 5495 5494 5493 5493 5496
5422 5422 5421 5421 5420 5421 5421 5422 5423 5425 5427 5429 5431 5434 5436 5438 5441 5444 5446 5449 5452 5456 5458 5461 5463 5465 5467 5469 5471 5473 5475 5476 5477 5479 5480 5481 5482 5483 5484 5484 5481 5480 5482
5409 5407 5406 5406 5406 5405 5406 5407 5409 5411 5412 5415 5417 5420 5422 5425 5427 5430 5433 5436 5439 5442 5445 5447 5450 5452 5454 5456 5458 5460 5462 5464 5466 5467 5468 5468 5470 5471 5472 5472 5473 5471 5471
5393 5392 5391 5391 5391 5391 5392 5393 5394 5396 5398 5401 5403 5406 5408 5410 5413 5416 5419 5422 5425 5427 5430 5433 5436 5438 5440 5442 5444 5447 5449 5451 5453 5454 5455 5456 5457 5458 5458 5459 5460 5461 5462
5379 5377 5377 5377 5376 5376 5377 5378 5379 5381 5383 5385 5388 5391 5393 5396 5398 5401 5404 5407 5410 5412 5415 5418 5421 5424 5426 5428 5430 5433 5435 5438 5440 5441 5443 5444 5444 5445 5445 5446 5446 5447 5448
5365 5363 5362 5362 5362 5362 5362 5363 5364 5366 5368 5370 5372 5375 5378 5380 5383 5385 5388 5391 5394 5397 5400 5402 5405 5408 5411 5413 5416 5419 5421 5424 5426 5428 5430 5431 5431 5432 5432 5432 5433 5434 5435
5352 5350 5349 5348 5348 5348 5348 5349 5350 5351 5353 5355 5357 5360 5362 5364 5367 5370 5373 5375 5378 5381 5384 5387 5390 5393 5396 5398 5401 5404 5407 5410 5412 5415 5416 5418 5418 5419 5419 5419 5420 5420 5421
5340 5339 5336 5335 5334 5334 5334 5335 5336 5338 5339 5341 5342 5345 5347 5349 5351 5354 5357 5360 5362 5366 5368 5371 5375 5378 5381 5384 5386 5388 5392 5395 5398 5401 5403 5404 5405 5406 5406 5406 5407 5406 5406
5329 5327 5325 5323 5321 5321 5321 5322 5322 5324 5325 5326 5328 5330 5332 5334 5336 5338 5341 5344 5347 5350 5352 5356 5359 5362 5366 5369 5371 5374 5377 5380 5383 5386 5388 5390 5392 5393 5393 5394 5394 5393 5393
5318 5316 5313 5311 5310 5309 5309 5309 5310 5310 5311 5312 5314 5316 5317 5319 5321 5323 5326 5329 5332 5334 5336 5339 5343 5346 5351 5355 5358 5360 5362 5365 5368 5371 5373 5375 5377 5378 5379 5380 5381 5381 5381
5307 5304 5302 5300 5299 5297 5297 5296 5296 5297 5297 5298 5300 5301 5303 5304 5306 5309 5311 5314 5316 5318 5321 5324 5327 5331 5335 5339 5342 5345 5347 5350 5353 5356 5358 5360 5363 5364 5365 5366 5367 5368 5369
5295 5293 5291 5289 5287 5286 5285 5285 5284 5284 5285 5285 5286 5288 5289 5291 5293 5295 5297 5299 5301 5304 5306 5309 5313 5316 5321 5324 5327 5330 5332 5335 5338 5341 5344 5345 5348 5349 5349 5351 5352 5354 5356
5283 5282 5280 5278 5276 5274 5274 5273 5272 5272 5273 5273 5274 5276 5277 5278 5280 5282 5284 5285 5287 5290 5292 5295 5298 5302 5307 5310 5313 5315 5317 5321 5324 5327 5330 5332 5334 5336 5336 5337 5339 5342 5343
5273 5270 5268 5266 5265 5264 5262 5261 5261 5261 5261 5262 5263 5264 5265 5266 5268 5269 5271 5272 5274 5276 5279 5282 5284 5288 5293 5296 5300 5301 5304 5308 5312 5314 5316 5318 5321 5322 5323 5324 5325 5328 5330
5261 5259 5257 5255 5254 5253 5252 5250 5250 5249 5250 5250 5251 5252 5253 5254 5256 5258 5260 5261 5262 5264 5265 5268 5271 5275 5279 5283 5287 5289 5291 5294 5297 5300 5303 5305 5307 5309 5311 5312 5313 5316 5317
5248 5247 5245 5244 5242 5241 5240 5239 5238 5238 5238 5239 5240 5241 5242 5243 5245 5246 5248 5248 5249 5250 5251 5254 5257 5261 5265 5269 5273 5276 5278 5281 5283 5287 5289 5291 5293 5294 5296 5298 5300 5301 5301
5236 5234 5232 5232 5231 5229 5228 5227 5228 5227 5227 5228 5228 5229 5230 5231 5233 5234 5235 5236 5236 5237 5239 5241 5244 5249 5252 5255 5259 5262 5264 5267 5269 5273 5276 5278 5280 5281 5282 5284 5285 5285 5285
5223 5221 5220 5219 5218 5218 5217 5217 5217 5217 5216 5216 5217 5218 5219 5220 5221 5222 5223 5224 5224 5225 5227 5229 5232 5235 5239 5242 5244 5247 5249 5252 5255 5258 5261 5263 5265 5266 5268 5269 5269 5270 5271
5212 5209 5207 5206 5206 5206 5206 5206 5206 5206 5205 5205 5206 5207 5207 5208 5209 5211 5211 5212 5214 5215 5216 5219 5220 5224 5227 5231 5233 5234 5237 5239 5241 5243 5245 5247 5249 5250 5252 5253 5254 5255 5256
5201 5198 5197 5196 5195 5195 5195 5195 5195 5195 5194 5195 5196 5196 5196 5197 5199 5200 5201 5203 5204 5206 5208 5210 5212 5215 5218 5220 5223 5224 5226 5228 5230 5230 5231 5233 5235 5236 5238 5239 5240 5241 5242